This is the latest recevied weather packets stored in our database for station/object OK1VCF-5. If no packets are shown the sender has not sent any weather packets the latest 10 day(s).
| Time | Temp. | Humidity | Pressure | Rain* | Wind** | Luminosity | Snow |
|---|---|---|---|---|---|---|---|
| 1777344641 | 1.11° C | 84% | 1025.9 hPa | - | - | - | - |
| 1777343739 | 1.11° C | 84% | 1026 hPa | - | - | - | - |
| 1777342836 | 0.56° C | 84% | 1026 hPa | - | - | - | - |
| 1777341935 | 1.11° C | 84% | 1026 hPa | - | - | - | - |
| 1777341035 | 1.11° C | 84% | 1026 hPa | - | - | - | - |
| 1777340135 | 1.11° C | 84% | 1026 hPa | - | - | - | - |
| 1777339233 | 1.11° C | 84% | 1026 hPa | - | - | - | - |
| 1777338334 | 1.11° C | 82% | 1026 hPa | - | - | - | - |
| 1777337557 | 1.11° C | 82% | 1026 hPa | - | - | - | - |
| 1777337433 | 1.11° C | 82% | 1026 hPa | - | - | - | - |
| 1777336531 | 1.67° C | 82% | 1025.9 hPa | - | - | - | - |
| 1777335630 | 2.22° C | 81% | 1026 hPa | - | - | - | - |
| 1777334730 | 2.22° C | 80% | 1026.1 hPa | - | - | - | - |
| 1777334729 | 2.22° C | 80% | 1026.1 hPa | - | - | - | - |
| 1777333830 | 2.22° C | 76% | 1026 hPa | - | - | - | - |
| 1777332929 | 2.78° C | 76% | 1026.2 hPa | - | - | - | - |
| 1777332028 | 2.22° C | 78% | 1026.1 hPa | - | - | - | - |
| 1777331128 | 2.78° C | 76% | 1026 hPa | - | - | - | - |
| 1777330291 | 2.78° C | 77% | 1025.8 hPa | - | - | - | - |
| 1777330227 | 2.78° C | 77% | 1025.8 hPa | - | - | - | - |
| 1777329326 | 3.33° C | 75% | 1025.8 hPa | - | - | - | - |
| 1777328424 | 3.33° C | 72% | 1025.8 hPa | - | - | - | - |
| 1777327523 | 3.89° C | 71% | 1025.7 hPa | - | - | - | - |
| 1777326622 | 4.44° C | 71% | 1025.6 hPa | - | - | - | - |
| 1777325722 | 4.44° C | 71% | 1025.6 hPa | - | - | - | - |
* Rain since midnight (hover to see other rain measurements)
** Current wind speed in m/s (hover to see current wind gust speed)